Stations météo

Publicité
Trappes, France (7145): Température de l'air & dewpoint: 19.05.2018 12:00:00 - 25.05.2018 12:00:00 (CEST)Trappes, France (7145): Température de l'air 5cm: 19.05.2018 12:00:00 - 25.05.2018 12:00:00 (CEST)Trappes, France (7145): Température de l'air -20cm & Température de l'air -100cm: 19.05.2018 12:00:00 - 25.05.2018 12:00:00 (CEST)Trappes, France (7145): Vitesse du vent & gusts: 19.05.2018 12:00:00 - 25.05.2018 12:00:00 (CEST)Trappes, France (7145): Direction du vent: 19.05.2018 12:00:00 - 25.05.2018 12:00:00 (CEST)Trappes, France (7145): reduced air pressure: 19.05.2018 12:00:00 - 25.05.2018 12:00:00 (CEST)Trappes, France (7145): visibility: 19.05.2018 12:00:00 - 25.05.2018 12:00:00 (CEST)Trappes, France (7145): Ensoleillement: 19.05.2018 12:00:00 - 25.05.2018 12:00:00 (CEST)Trappes, France (7145): Quantités de précipitations: 19.05.2018 12:00:00 - 25.05.2018 12:00:00 (CEST)
Date & Time tt [°C] td [°C] tt 5cm [°C] tt -20cm [°C] tt -100cm [°C] ff [km/h] ff [knt] fx [km/h] fx [knt] dd ppp [hPa] vv [km] sd [min] rr [mm]
25.05.2018 12:00:00 21,8 13,9 28,1 17,2 13,9 8 4 16 9 ENE 1016,7 19 60 0,0
25.05.2018 11:00:00 19,8 14,8 25,1 17,0 13,9 8 4 16 8 NNE 1016,9 17 60 0,0
25.05.2018 10:00:00 17,9 13,8 20,2 16,9 13,9 9 5 14 7 NNE 1017,4 16 60 0,0
25.05.2018 09:00:00 16,1 12,8 16,7 17,0 13,9 6 3 13 7 N 1017,4 8 54 0,0
25.05.2018 08:00:00 14,1 13,3 12,2 17,1 13,8 4 2 9 5 N 1017,5 4,8 53 0,0
25.05.2018 07:00:00 12,3 12,1 10,5 17,3 13,9 3 2 9 5 NNW 1017,4 1,5 0 0,0
25.05.2018 06:00:00 12,6 12,0 8,0 17,6 13,8 2 1 9 5 N 1017,1 5 0 0,0
25.05.2018 05:00:00 12,6 12,0 8,6 17,9 13,9 0 0 5 3 N 1017,0 6 0 0,0
25.05.2018 04:00:00 12,9 11,8 8,5 18,1 13,9 2 1 6 4 NNW 1016,9 16 0 0,0
25.05.2018 03:00:00 13,8 12,2 8,8 18,3 13,8 4 2 8 4 N 1016,8 20 0 0,0
25.05.2018 02:00:00 13,9 12,3 9,7 18,7 13,8 0 0 6 4 N 1016,9 20 0 0,0
25.05.2018 01:00:00 15,4 12,7 10,8 18,9 13,8 4 2 8 4 NNW 1017,1 20 0 0,0
25.05.2018 00:00:00 16,2 12,9 11,9 19,1 13,8 0 0 8 4 N 1017,2 20 0 0,0
24.05.2018 23:00:00 17,3 13,6 13,5 19,4 13,8 2 1 11 6 N 1017,3 20 0 0,0
24.05.2018 22:00:00 19,3 12,6 14,3 19,6 13,8 3 2 12 7 WNW 1016,4 20 0 0,0
24.05.2018 21:00:00 20,9 12,3 19,6 19,6 13,8 8 4 17 9 WNW 1015,8 20 58 0,0
24.05.2018 20:00:00 22,2 12,2 22,0 19,6 13,8 8 4 16 9 WNW 1015,5 20 50 0,0
24.05.2018 19:00:00 23,1 12,1 22,1 19,4 13,8 8 4 18 10 WSW 1015,1 20 35 0,0
24.05.2018 18:00:00 22,1 10,6 23,7 19,1 13,7 8 5 21 11 SSW 1015,3 20 46 0,0
24.05.2018 17:00:00 22,7 13,5 28,5 18,7 13,7 8 4 18 10 SSW 1015,4 20 60 0,0
24.05.2018 16:00:00 21,9 13,8 26,3 18,2 13,7 8 4 22 12 S 1016,1 20 53 0,0
24.05.2018 15:00:00 21,6 13,5 23,6 17,7 13,7 9 5 21 11 SSW 1016,5 20 41 0,0
24.05.2018 14:00:00 20,6 16,2 27,1 17,2 13,8 9 5 20 11 W 1017,2 10 45 0,0
24.05.2018 13:00:00 18,8 14,9 23,5 16,9 13,8 4 2 12 6 W 1017,7 7 57 0,0
24.05.2018 12:00:00 17,3 15,3 18,5 16,7 13,7 0 0 11 6 N 1018,2 5 9 0,0
24.05.2018 11:00:00 14,8 14,0 17,2 16,7 13,7 4 2 11 6 NE 1018,4 3,7 0 0,0
24.05.2018 10:00:00 14,3 14,3 15,5 16,6 13,7 4 2 8 4 NW 1018,5 1,1 0 0,0
24.05.2018 09:00:00 13,7 13,7 14,5 16,7 13,7 4 2 12 6 N 1018,4 0,7 0 0,0
24.05.2018 08:00:00 13,4 13,4 13,7 16,8 13,7 3 2 9 5 NW 1018,3 0,2 0 0,0
24.05.2018 07:00:00 13,5 13,3 13,3 16,9 13,7 3 2 9 5 NW 1018,0 0,5 0 0,0
24.05.2018 06:00:00 13,4 13,1 11,7 17,1 13,7 5 3 8 4 NW 1018,1 1,7 0 0,0
24.05.2018 05:00:00 13,5 13,0 11,7 17,3 13,7 4 2 8 4 N 1018,1 1,9 0 0,0
24.05.2018 04:00:00 14,1 13,1 12,5 17,5 13,7 4 2 9 5 NNW 1018,2 2,7 0 0,0
24.05.2018 03:00:00 14,8 13,7 14,2 17,6 13,7 5 3 8 5 NNW 1018,4 3,4 0 0,0
24.05.2018 02:00:00 15,1 13,6 14,3 17,8 13,6 4 2 11 6 NNE 1018,7 3,8 0 0,0
24.05.2018 01:00:00 15,3 13,7 14,6 18,0 13,7 5 3 11 6 NNE 1018,7 4,2 0 0,0
24.05.2018 00:00:00 15,1 13,5 13,4 18,2 13,7 6 3 10 6 NNW 1019,1 4,2 0 0,0
23.05.2018 23:00:00 15,6 13,4 14,2 18,3 13,6 5 3 13 7 N 1018,9 5 0 0,0
23.05.2018 22:00:00 16,2 13,1 15,2 18,5 13,6 6 4 13 7 NNE 1018,6 7 9 0,0
23.05.2018 21:00:00 17,1 13,2 17,0 18,6 13,6 6 3 18 10 N 1018,3 9 60 0,0
23.05.2018 20:00:00 17,8 13,5 20,6 18,5 13,6 11 6 21 12 NNE 1018,1 10 60 0,0
23.05.2018 19:00:00 18,0 13,1 21,7 18,4 13,6 13 7 24 13 NNE 1018,0 10 52 0,0
23.05.2018 18:00:00 19,1 13,5 22,2 18,2 13,6 11 6 27 14 NNE 1017,9 11 53 0,0
23.05.2018 17:00:00 19,9 13,6 22,1 17,8 13,6 14 8 27 15 N 1017,8 13 47 0,0
23.05.2018 16:00:00 20,6 13,8 24,3 17,4 13,6 11 6 24 13 N 1017,9 15 43 0,0
23.05.2018 15:00:00 20,0 13,0 25,2 17,0 13,6 11 6 23 13 N 1018,3 14 53 0,0
23.05.2018 14:00:00 19,0 13,4 24,0 16,5 13,6 9 5 21 11 NNE 1018,6 13 54 0,0
23.05.2018 13:00:00 17,9 13,4 23,9 16,2 13,6 8 5 19 10 N 1019,0 11 55 0,0
23.05.2018 12:00:00 16,0 13,3 17,0 16,1 13,5 11 6 19 10 NNE 1019,3 6 18 0,0
23.05.2018 11:00:00 12,9 11,8 14,4 16,0 13,5 8 4 17 9 N 1019,5 2,9 0 0,0
23.05.2018 10:00:00 12,1 11,2 13,8 16,1 13,6 10 6 20 11 N 1019,7 2,8 0 0,0
23.05.2018 09:00:00 12,5 11,6 13,5 16,1 13,5 10 5 18 10 NNE 1019,0 3,5 3 0,2
23.05.2018 08:00:00 12,4 11,3 11,4 16,2 13,5 11 6 16 9 NNE 1018,6 4,5 26 0,0
23.05.2018 07:00:00 12,0 11,4 11,2 16,4 13,5 4 2 11 6 N 1017,9 4,5 0 0,0
23.05.2018 06:00:00 12,0 11,5 10,6 16,6 13,5 5 3 10 5 NNW 1017,4 4,5 0 0,0
23.05.2018 05:00:00 12,6 12,0 11,6 16,8 13,5 5 3 11 6 NNW 1017,2 7 0 0,0
23.05.2018 04:00:00 12,9 12,3 11,0 17,0 13,5 5 3 11 6 NNW 1017,1 8 0 0,0
23.05.2018 03:00:00 13,3 12,8 11,8 17,2 13,5 8 4 13 7 NNW 1016,6 4,7 0 0,0
23.05.2018 02:00:00 13,9 13,3 11,7 17,4 13,5 6 3 10 5 NW 1016,4 5 0 0,0
23.05.2018 01:00:00 14,4 13,4 11,9 17,7 13,5 4 2 9 5 W 1016,4 11 0 0,0
23.05.2018 00:00:00 14,6 13,3 12,4 17,9 13,5 5 3 12 6 NW 1016,3 14 0 0,0
22.05.2018 23:00:00 14,8 13,3 12,5 18,1 13,5 6 3 10 6 W 1016,2 19 0 0,0
22.05.2018 22:00:00 15,1 13,3 13,3 18,3 13,5 3 2 14 7 W 1015,7 20 0 0,0
22.05.2018 21:00:00 16,2 14,4 14,0 18,5 13,5 0 0 9 5 N 1015,0 18 0 0,0
22.05.2018 20:00:00 15,9 14,3 14,0 18,6 13,5 9 5 16 8 WSW 1014,9 17 0 0,6
22.05.2018 19:00:00 15,2 12,5 13,5 18,6 13,4 9 5 37 20 NE 1014,2 17 0 5,1
22.05.2018 18:00:00 19,6 10,8 21,4 18,3 13,5 25 13 39 21 ENE 1013,3 17 41 0,0
22.05.2018 17:00:00 23,5 11,2 25,3 18,1 13,4 11 6 23 12 WNW 1012,1 20 36 0,0
22.05.2018 16:00:00 22,5 10,3 25,1 17,8 13,4 9 5 21 11 WNW 1012,6 20 41 0,0
22.05.2018 15:00:00 21,8 10,9 23,1 17,4 13,4 8 5 19 11 NW 1013,0 20 19 0,0
22.05.2018 14:00:00 20,9 11,5 23,0 17,0 13,4 10 5 22 12 NW 1013,0 20 40 0,0
22.05.2018 13:00:00 21,1 11,1 27,7 16,6 13,4 10 5 20 11 NNW 1013,3 20 56 0,0
22.05.2018 12:00:00 20,8 11,4 28,3 16,3 13,4 6 3 14 8 NNW 1013,2 20 60 0,0
22.05.2018 11:00:00 19,3 11,3 21,7 16,1 13,4 8 4 14 8 NW 1013,3 19 60 0,0
22.05.2018 10:00:00 17,1 11,8 21,1 16,0 13,4 6 3 14 7 NW 1013,3 15 50 0,0
22.05.2018 09:00:00 16,0 12,5 15,6 16,0 13,4 7 4 16 9 NNW 1013,4 11 60 0,0
22.05.2018 08:00:00 14,5 12,4 12,8 16,1 13,4 7 4 13 7 NNW 1013,0 8 60 0,0
22.05.2018 07:00:00 13,0 11,9 11,1 16,3 13,4 4 2 13 7 NW 1012,8 7 12 0,0
22.05.2018 06:00:00 12,8 11,9 8,8 16,6 13,4 6 3 12 6 WNW 1012,5 8 0 0,0
22.05.2018 05:00:00 13,0 11,7 9,0 16,8 13,4 2 1 10 6 WNW 1012,2 9 0 0,0
22.05.2018 04:00:00 13,3 11,7 9,7 17,0 13,4 0 0 9 5 N 1012,3 11 0 0,0
22.05.2018 03:00:00 14,2 12,2 11,0 17,2 13,4 3 2 10 5 NW 1012,2 20 0 0,0
22.05.2018 02:00:00 14,5 11,8 10,8 17,4 13,4 3 1 8 4 NW 1012,2 20 0 0,0
22.05.2018 01:00:00 15,5 12,1 12,0 17,7 13,4 4 2 12 6 NNW 1012,3 20 0 0,0
22.05.2018 00:00:00 16,6 12,3 11,9 17,8 13,4 4 2 9 5 NW 1012,4 20 0 0,0
21.05.2018 23:00:00 17,8 12,7 15,5 18,0 13,4 5 3 15 8 NNW 1012,2 20 0 0,0
21.05.2018 22:00:00 19,5 12,0 17,7 18,0 13,3 4 2 11 6 N 1011,7 20 7 0,0
21.05.2018 21:00:00 21,0 11,3 20,9 18,0 13,3 6 3 10 6 NNW 1011,3 20 55 0,0
21.05.2018 20:00:00 22,6 11,0 26,4 17,9 13,3 2 1 7 4 N 1010,9 20 60 0,0
21.05.2018 19:00:00 22,5 10,6 26,0 17,8 13,3 2 1 10 6 NE 1010,7 20 60 0,0
21.05.2018 18:00:00 21,8 10,6 25,0 17,6 13,3 6 4 12 6 NE 1010,7 20 42 0,0
21.05.2018 17:00:00 21,2 10,9 23,2 17,4 13,3 4 2 13 7 ENE 1011,4 20 0 0,0
21.05.2018 16:00:00 20,7 11,3 23,4 17,0 13,3 6 3 13 7 NNE 1011,8 20 2 0,0
21.05.2018 15:00:00 21,8 11,2 30,0 16,6 13,3 5 3 16 9 SE 1012,1 20 56 0,0
21.05.2018 14:00:00 20,3 12,3 24,2 16,1 13,3 6 4 16 9 ENE 1012,3 20 43 0,0
21.05.2018 13:00:00 19,7 12,2 24,3 15,7 13,3 7 4 16 9 NNE 1012,9 20 36 0,0
21.05.2018 12:00:00 19,1 12,6 20,9 15,4 13,3 8 4 17 9 N 1013,1 20 44 0,0
21.05.2018 11:00:00 17,1 12,4 21,5 15,1 13,3 6 3 12 6 N 1013,6 20 51 0,0
21.05.2018 10:00:00 16,0 12,0 20,6 15,0 13,3 7 4 13 7 ENE 1013,9 19 60 0,0
21.05.2018 09:00:00 15,0 11,2 15,1 15,1 13,3 6 3 11 6 ENE 1014,0 20 60 0,0
21.05.2018 08:00:00 13,2 11,4 9,6 15,2 13,3 5 3 10 6 NE 1014,4 18 35 0,0
21.05.2018 07:00:00 10,8 10,0 5,8 15,4 13,3 4 2 6 3 NNE 1014,7 11 22 0,0
21.05.2018 06:00:00 10,9 9,8 6,0 15,6 13,3 2 1 5 3 N 1014,7 14 0 0,0
21.05.2018 05:00:00 12,3 10,5 9,1 15,8 13,3 3 2 8 5 N 1014,8 20 0 0,0
21.05.2018 04:00:00 12,3 10,2 8,4 16,0 13,3 5 3 9 5 NE 1015,2 20 0 0,0
21.05.2018 03:00:00 13,2 10,4 10,0 16,2 13,3 4 2 12 7 NNE 1015,6 20 0 0,0
21.05.2018 02:00:00 13,6 10,6 9,8 16,4 13,3 8 4 15 8 NE 1016,0 20 0 0,0
21.05.2018 01:00:00 13,4 9,8 8,6 16,6 13,3 5 3 9 5 NE 1016,4 20 0 0,0
21.05.2018 00:00:00 14,6 9,6 8,9 16,8 13,3 3 2 6 3 E 1016,5 20 0 0,0
20.05.2018 23:00:00 15,9 9,6 10,7 17,0 13,3 2 1 18 10 NE 1016,8 20 0 0,0
20.05.2018 22:00:00 17,8 9,7 15,3 17,1 13,3 8 4 20 11 NNE 1016,6 20 6 0,0
20.05.2018 21:00:00 19,5 8,8 18,0 17,2 13,3 7 4 23 12 NNE 1016,3 20 60 0,0
20.05.2018 20:00:00 20,9 8,5 22,4 17,1 13,3 11 6 27 15 NNE 1016,2 20 60 0,0
20.05.2018 19:00:00 21,3 7,9 25,5 16,9 13,3 9 5 24 13 NE 1015,9 20 60 0,0
20.05.2018 18:00:00 21,6 6,7 23,9 16,7 13,3 13 7 27 15 NE 1016,6 20 54 0,0
20.05.2018 17:00:00 21,0 9,3 24,0 16,4 13,3 13 7 29 15 ENE 1017,3 20 54 0,0
20.05.2018 16:00:00 21,0 9,6 22,5 16,0 13,3 14 7 29 16 ENE 1018,1 18 47 0,0
20.05.2018 15:00:00 20,3 10,4 24,4 15,5 13,3 13 7 28 15 E 1018,8 18 53 0,0
20.05.2018 14:00:00 19,0 10,3 26,3 15,1 13,3 14 8 29 15 NE 1019,6 15 60 0,0
20.05.2018 13:00:00 17,7 10,6 25,4 14,7 13,3 10 5 21 11 NNE 1020,1 11 60 0,0
20.05.2018 12:00:00 15,6 10,1 23,3 14,5 13,2 13 7 22 12 NNE 1020,6 9 60 0,0
20.05.2018 11:00:00 13,4 9,1 17,9 14,3 13,2 9 5 16 8 N 1021,0 7 60 0,0
20.05.2018 10:00:00 10,6 8,2 11,6 14,3 13,3 8 4 16 9 N 1021,4 4,5 53 0,0
20.05.2018 09:00:00 8,5 7,7 9,5 14,4 13,2 10 6 19 10 NNE 1021,6 2,6 3 0,0
20.05.2018 08:00:00 7,9 7,5 7,7 14,5 13,3 9 5 16 8 NNE 1021,4 2,1 0 0,0
20.05.2018 07:00:00 7,5 7,1 6,0 14,7 13,3 7 4 15 8 NNE 1021,2 2,4 0 0,0
20.05.2018 06:00:00 7,2 6,6 4,9 14,9 13,2 6 4 12 7 N 1021,0 2,7 0 0,0
20.05.2018 05:00:00 7,4 6,7 5,6 15,2 13,2 5 3 13 7 NNE 1021,2 3,4 0 0,0
20.05.2018 04:00:00 7,9 6,8 5,5 15,4 13,2 7 4 12 7 N 1021,4 4,7 0 0,0
20.05.2018 03:00:00 8,4 6,7 6,1 15,6 13,2 7 4 15 8 NNE 1021,7 7 0 0,0
20.05.2018 02:00:00 9,4 7,0 7,6 15,8 13,2 8 4 17 9 NNE 1022,1 9 0 0,0
20.05.2018 01:00:00 10,2 7,4 8,4 16,0 13,2 9 5 17 9 NE 1022,1 12 0 0,0
20.05.2018 00:00:00 11,4 7,9 9,2 16,3 13,2 8 4 19 10 NE 1022,0 15 0 0,0
19.05.2018 23:00:00 12,7 8,2 11,1 16,4 13,2 13 7 21 11 NE 1021,9 19 0 0,0
19.05.2018 22:00:00 13,7 8,3 11,5 16,6 13,2 6 4 21 12 NNE 1021,5 20 5 0,0
19.05.2018 21:00:00 15,6 7,9 14,7 16,6 13,2 8 4 24 13 NNE 1020,7 20 60 0,0
19.05.2018 20:00:00 17,2 7,0 19,5 16,6 13,2 10 6 23 12 NNE 1020,1 18 60 0,0
19.05.2018 19:00:00 18,0 4,9 19,8 16,5 13,2 11 6 26 14 NE 1020,1 20 52 0,0
19.05.2018 18:00:00 18,4 4,2 24,2 16,3 13,2 14 8 27 15 N 1020,4 20 60 0,0
19.05.2018 17:00:00 18,3 5,5 24,4 16,0 13,2 14 8 32 17 NNE 1020,8 20 60 0,0
19.05.2018 16:00:00 18,2 6,4 25,0 15,6 13,2 10 5 26 14 N 1021,1 20 60 0,0
19.05.2018 15:00:00 17,6 6,5 25,8 15,2 13,2 12 6 26 14 NE 1021,5 18 60 0,0
19.05.2018 14:00:00 16,6 7,5 24,4 14,8 13,2 12 7 24 13 ENE 1021,9 18 60 0,0
19.05.2018 13:00:00 15,6 7,4 23,1 14,5 13,2 13 7 23 12 NE 1022,3 16 60 0,0
19.05.2018 12:00:00 14,4 7,9 22,2 14,2 13,2 13 7 25 14 NNE 1022,5 14 60 0,0

tt = Température de l'air
td = dewpoint
tt 5cm = Température de l'air 5cm
tt -20cm = Température de l'air -20cm
tt -100cm = Température de l'air -100cm
ff = Vitesse du vent
fx = gusts
dd = Direction du vent
ppp = reduced air pressure
vv = visibility
sd = Ensoleillement
rr = Quantités de précipitations

stations d'obs. à proximité